sat.trackr.live / text

‹ back to catalog

STARLINK-34503

NORAD 64420 · 2025-129J

PAYLOAD ACTIVE UNKNOWN

§ Identity

Operator
Country
US
Launch date
2025-06-17
Launch site
AFWTR
Launch vehicle
Mass (kg)
RCS (m²)

Purposes: comms

External: N2YO · Heavens-Above · Gunter

§ Orbital elements

Epoch: 2026-09-20T12:50:36.647232Z

Period
94.14 min
Inclination
70.0006°
Eccentricity
0.0003385
Mean motion
15.29580839 rev/d
Perigee alt
474.7 km
Apogee alt
479.4 km
Semi-major
6,855.2 km
B*
1.3199e-4
RAAN
300.7722°
Arg perigee
271.3158°
Mean anomaly
88.7629°
Rev number
7,047

§ Raw data

STARLINK-345031 64420U 25129J   26263.53514638  .00003668  00000+0  13199-3 0  99972 64420  70.0006 300.7722 0003385 271.3158  88.7629 15.29580839 70476

JSON: /api/v1/satellites/64420 · /tle

For live sub-satellite position, see the globe view (requires WebGL).

§ Visibility from observer

Set your observer location to see the next 7 days of passes ≥ 10°. The values pass through the URL so the page stays shareable.

No JS? Fill the form by hand. The geolocation button needs JavaScript.